Location: Cabeza de los Veneras
(40.2000°N, 5.2000°W)
Time: 02:22:39
(UTC+00:00)

SJ 16-02 - Visible Passes

Search period start: 19 July 2024 00:00
Search period end: 29 July 2024 00:00
Orbit: 593 x 606 km, 75.0° (Epoch: 18 July)

Date Brightness Start Highest point End Pass type
(mag) Time Alt. Az. Time Alt. Az. Time Alt. Az.
19 Jul 3.1 01:10:55 10° N 01:14:33 25° ENE 01:15:15 24° E visible
19 Jul 2.6 02:49:07 10° NW 02:51:56 25° WNW 02:51:56 25° WNW visible
20 Jul 2.3 01:21:45 10° N 01:25:44 41° ENE 01:25:44 41° ENE visible
20 Jul 3.4 03:01:11 10° WNW 03:02:26 14° WNW 03:02:26 14° WNW visible
21 Jul 2.0 01:32:49 10° NNW 01:36:17 54° N 01:36:17 54° N visible
22 Jul 3.9 00:07:38 10° NNE 00:09:39 13° ENE 00:10:11 13° ENE visible
22 Jul 2.4 01:44:05 10° NNW 01:46:53 37° NW 01:46:53 37° NW visible
23 Jul 3.4 00:17:47 10° NNE 00:20:49 21° ENE 00:20:49 21° ENE visible
23 Jul 3.1 01:55:34 10° NW 01:57:32 22° NW 01:57:32 22° NW visible
24 Jul 2.9 00:28:29 10° N 00:31:30 31° NE 00:31:30 31° NE visible
24 Jul 3.7 02:07:25 10° NW 02:08:13 13° WNW 02:08:13 13° WNW visible
25 Jul 2.7 00:39:27 10° N 00:42:13 36° N 00:42:13 36° N visible
25 Jul 4.0 23:15:05 10° NE 23:16:06 11° ENE 23:16:15 11° ENE visible
26 Jul 2.9 00:50:37 10° NNW 00:52:58 31° NNW 00:52:58 31° NNW visible
26 Jul 3.6 23:24:36 10° NNE 23:27:01 17° NE 23:27:01 17° NE visible
27 Jul 3.4 01:02:00 10° NNW 01:03:44 22° NW 01:03:44 22° NW visible
27 Jul 3.2 23:35:09 10° N 23:37:49 25° NE 23:37:49 25° NE visible
28 Jul 3.8 01:13:40 10° NW 01:14:32 14° NW 01:14:32 14° NW visible
28 Jul 2.9 23:46:00 10° N 23:48:38 32° NNE 23:48:38 32° NNE visible
